Regional Weather Roundup
Issued by NWS Newport/Morehead, NC

Current Version | Previous Version | Graphics & Text | Print | Product List | Glossary Off
Versions: 1 2 3 4 5 6 7 8 9 10 11 12 13 14 15 16 17 18 19 20 21 22 23 24 25 26 27 28 29 30 31 32 33 34 35 36 37 38 39 40 41 42 43 44 45 46 47 48 49 50

260
ASUS42 KMHX 212213
RWRMHX
WEATHER ROUNDUP FOR EASTERN NORTH CAROLINA
NATIONAL WEATHER SERVICE NEWPORT/MOREHEAD CITY NC
500 PM EST SAT JAN 21 2017

NOTE: "FAIR" INDICATES FEW OR NO CLOUDS BELOW 12,000 FEET
WITH NO SIGNIFICANT WEATHER AND/OR OBSTRUCTIONS TO VISIBILITY

NCZ015>017-031-032-045>047-102-103-212300-
NORTH COAST

CITY           SKY/WX    TMP DP  RH WIND       PRES   REMARKS
EDENTON        CLOUDY    55  52  89 CALM      29.83F
ELIZABETH CITY FOG       50  49  96 E5        29.83F VSB 1/2
KITTY HAWK     NOT AVBL
MANTEO         CLOUDY    52  52 100 CALM      29.85S

$$

NCZ045>047-081-094-103-104-212300-
CENTRAL COAST

CITY           SKY/WX    TMP DP  RH WIND       PRES   REMARKS
FRISCO         CLOUDY    55  52  89 N7        29.82S

$$

NCZ095-097-098-100-101-212300-
SOUTHERN COAST

CITY           SKY/WX    TMP DP  RH WIND       PRES   REMARKS
BEAUFORT       CLOUDY    61  57  87 NE7       29.79F
CEDAR ISLAND   NOT AVBL
JACKSONVILLE   CLOUDY    64  62  93 SE6       29.77F
PINEY ISLAND   CLOUDY   N/A N/A N/A NE6       29.81F
WILMINGTON     MOCLDY    63  61  93 E6        29.76F


$$

NCZ011>013-027>030-043-044-078>080-089-090>093-098-212300-
COASTAL PLAIN

CITY           SKY/WX    TMP DP  RH WIND       PRES   REMARKS
AHOSKIE          N/A     53  52  97 CALM      29.82F FOG
CLINTON        LGT RAIN  61  60  97 CALM      29.77F
ELIZABETHTOWN  CLOUDY    65  64  99 SE3       29.75F
GOLDSBORO      CLOUDY    58  58  99 E7        29.76S FOG
GREENVILLE     DRIZZLE   59  55  88 E7        29.82F
HAVELOCK       CLOUDY    56  53  90 NE7       29.80F
KENANSVILLE    LGT RAIN  59  59 100 CALM      29.77F FOG
KINSTON        DRIZZLE   57  57 100 E5        29.80
NEW BERN       LGT RAIN  58  55  90 E5        29.80F
RICHLANDS      CLOUDY    62  60  93 NE5       29.78F
ROCKY MOUNT    LGT RAIN  54  54 100 NE5       29.79F VSB 1/4
WASHINGTON     CLOUDY    56  52  85 NE5         N/A
WHITEVILLE     CLOUDY    65  64  94 CALM      29.75R

$$

AMZ130-135-150-152-154-156-158-170-250-252-270-ANZ085-086-088-633-658-670-212300-
MARINE OBSERVATIONS

STATION/POSITION TIME  TEMP    WIND        PRES    WAVE   SWELL
                       AIR SEA DIR/SP/G            HT/PER HT/PER
                 (UTC) (F)     (DEG/KT/KT) (MB)    (FT/S) (FT/S)
CHESAPEAKE LIGHT NOT AVBL
64 E VA BEACH    2150   55 56   50/  4/  6 1010.2    3/11   3/11
DUCK             2142   49 46   CALM  /  1 1010.0
2 E DUCK         2200      47                N/A     2/11   2/11
OREGON INLET     2148          360/  2/  3 1010.3
13E OREGON INLT  NOT AVBL
HATTERAS CG      2142   52 55   20/  6/  8 1009.3
DIAMOND BUOY     2150   71 74  160/ 10/ 12 1009.4    4/10   3/10
CAPE LOOKOUT     2100   65      70/  2/  3 1008.8
BEAUFORT LAB     2142   64 51   50/  4/  5 1007.8
30 SE NEW RVR IN NOT AVBL
30 SE NEW RVR IN 2143      66                N/A     3/13   2/13
27 SE WRIGHTSVLE 2108   71 72  170/ 14/ 19 1008.1
5 SE WRIGHTSVLE  2108   57      30/  4/  8 1008.3
225 S CAPE HAT   2150   69 71  130/ 12/ 12 1010.9    5/ 7   5/ 7
41 SE CHARLESTON 2050   69 67  190/  8/ 10 1007.1    2/11   2/11

$$




USA.gov is the U.S. government's official web portal to all federal, state and local government web resources and services.